| time (UTC) | temp F | wind direction | speed knots | gust knots | rain 1hr in | rain 24hr in | rain mn in | humidity % | barometer mb |
| 20260510191836 | 85 | 121 | 4.3 | 7.8 | 0.00 | 0.00 | 0.00 | 83 | 1013.4 |
| 20260510191342 | 84 | 82 | 2.6 | 7.0 | 0.00 | 0.00 | 0.00 | 84 | 1013.3 |
| 20260510190829 | 84 | 135 | 1.7 | 9.6 | 0.00 | 0.00 | 0.00 | 83 | 1013.3 |
| 20260510190330 | 84 | 112 | 4.3 | 9.6 | 0.00 | 0.00 | 0.00 | 84 | 1013.2 |
| 20260510185857 | 84 | 36 | 2.6 | 8.7 | 0.00 | 0.00 | 0.00 | 84 | 1013.1 |
| 20260510185320 | 84 | 51 | 5.2 | 9.6 | 0.00 | 0.00 | 0.00 | 84 | 1013.1 |
| 20260510184851 | 84 | 111 | 6.1 | 10.4 | 0.00 | 0.00 | 0.00 | 85 | 1013.2 |
| 20260510184330 | 83 | 145 | 4.3 | 7.8 | 0.00 | 0.00 | 0.00 | 85 | 1013.2 |
| 20260510183839 | 83 | 115 | 0.9 | 6.1 | 0.00 | 0.00 | 0.00 | 85 | 1013.1 |
| 20260510183322 | 83 | 135 | 1.7 | 9.6 | 0.00 | 0.00 | 0.00 | 85 | 1013.1 |
| 20260510182827 | 83 | 90 | 6.1 | 9.6 | 0.00 | 0.00 | 0.00 | 85 | 1013.2 |
| 20260510182336 | 83 | 152 | 2.6 | 7.0 | 0.00 | 0.00 | 0.00 | 85 | 1013.2 |
| 20260510181844 | 82 | 140 | 3.5 | 7.8 | 0.00 | 0.00 | 0.00 | 85 | 1013.3 |
| 20260510181328 | 82 | 105 | 4.3 | 9.6 | 0.00 | 0.00 | 0.00 | 85 | 1013.3 |
| 20260510180835 | 82 | 102 | 5.2 | 10.4 | 0.00 | 0.00 | 0.00 | 86 | 1013.2 |
| 20260510180321 | 82 | 127 | 7.8 | 10.4 | 0.00 | 0.00 | 0.00 | 86 | 1013.3 |
| 20260510175850 | 82 | 73 | 5.2 | 9.6 | 0.00 | 0.00 | 0.00 | 86 | 1013.4 |
| 20260510175331 | 82 | 55 | 3.5 | 11.3 | 0.00 | 0.00 | 0.00 | 86 | 1013.4 |
| 20260510174837 | 82 | 164 | 1.7 | 11.3 | 0.00 | 0.00 | 0.00 | 86 | 1013.4 |
| 20260510174320 | 82 | 71 | 4.3 | 10.4 | 0.00 | 0.00 | 0.00 | 86 | 1013.5 |
| 20260510173832 | 82 | 107 | 6.1 | 10.4 | 0.00 | 0.00 | 0.00 | 86 | 1013.6 |
| 20260510173337 | 82 | 144 | 4.3 | 11.3 | 0.00 | 0.00 | 0.00 | 87 | 1013.7 |
| 20260510172859 | 82 | 142 | 5.2 | 12.2 | 0.00 | 0.00 | 0.00 | 87 | 1013.7 |
| 20260510172322 | 82 | 167 | 2.6 | 9.6 | 0.00 | 0.00 | 0.00 | 87 | 1013.8 |
| 20260510171824 | 81 | 140 | 3.5 | 9.6 | 0.00 | 0.00 | 0.00 | 87 | 1013.9 |
| 20260510171329 | 81 | 145 | 2.6 | 11.3 | 0.00 | 0.00 | 0.00 | 87 | 1013.9 |
| 20260510170835 | 80 | 101 | 3.5 | 11.3 | 0.00 | 0.00 | 0.00 | 87 | 1014.0 |
| 20260510170346 | 80 | 147 | 1.7 | 7.8 | 0.00 | 0.00 | 0.00 | 87 | 1014.0 |
| 20260510165829 | 80 | 134 | 4.3 | 7.8 | 0.00 | 0.00 | 0.00 | 87 | 1014.1 |
| 20260510165330 | 79 | 86 | 3.5 | 9.6 | 0.00 | 0.00 | 0.00 | 87 | 1014.1 |
| 20260510164837 | 79 | 85 | 6.1 | 9.6 | 0.00 | 0.00 | 0.00 | 87 | 1014.2 |
| 20260510164344 | 79 | 148 | 2.6 | 7.8 | 0.00 | 0.00 | 0.00 | 87 | 1014.3 |
| 20260510163827 | 79 | 47 | 4.3 | 7.8 | 0.00 | 0.00 | 0.00 | 87 | 1014.2 |
| 20260510163332 | 79 | 75 | 3.5 | 7.8 | 0.00 | 0.00 | 0.00 | 88 | 1014.3 |
| 20260510162820 | 79 | 83 | 4.3 | 8.7 | 0.00 | 0.00 | 0.00 | 88 | 1014.3 |
| 20260510162350 | 79 | 106 | 4.3 | 8.7 | 0.00 | 0.00 | 0.00 | 88 | 1014.3 |
| 20260510161827 | 78 | 109 | 3.5 | 7.0 | 0.00 | 0.00 | 0.00 | 88 | 1014.4 |
| 20260510161332 | 78 | 78 | 4.3 | 7.8 | 0.00 | 0.00 | 0.00 | 88 | 1014.4 |
| 20260510160820 | 78 | 82 | 3.5 | 9.6 | 0.00 | 0.00 | 0.00 | 88 | 1014.5 |
| 20260510160324 | 78 | 104 | 6.1 | 9.6 | 0.00 | 0.00 | 0.00 | 88 | 1014.6 |
| 20260510155831 | 78 | 76 | 4.3 | 7.0 | 0.00 | 0.00 | 0.00 | 88 | 1014.5 |
| 20260510155343 | 78 | 5 | 3.5 | 7.8 | 0.00 | 0.00 | 0.00 | 88 | 1014.5 |
| 20260510154823 | 78 | 78 | 4.3 | 8.7 | 0.00 | 0.00 | 0.00 | 88 | 1014.5 |
| 20260510154326 | 78 | 44 | 3.5 | 8.7 | 0.00 | 0.00 | 0.00 | 88 | 1014.5 |
| 20260510153829 | 78 | 121 | 4.3 | 8.7 | 0.00 | 0.00 | 0.00 | 88 | 1014.5 |
| 20260510153335 | 78 | 109 | 4.3 | 8.7 | 0.00 | 0.00 | 0.00 | 88 | 1014.5 |
| 20260510152821 | 78 | 90 | 4.3 | 7.8 | 0.00 | 0.00 | 0.00 | 88 | 1014.4 |
| 20260510152321 | 77 | 120 | 4.3 | 9.6 | 0.00 | 0.00 | 0.00 | 88 | 1014.3 |
| 20260510151852 | 77 | 100 | 5.2 | 11.3 | 0.00 | 0.00 | 0.00 | 88 | 1014.4 |
| 20260510151338 | 77 | 70 | 7.0 | 11.3 | 0.00 | 0.00 | 0.00 | 88 | 1014.3 |
| 20260510150823 | 77 | 49 | 4.3 | 9.6 | 0.00 | 0.00 | 0.00 | 88 | 1014.4 |
| 20260510150323 | 77 | 121 | 6.1 | 11.3 | 0.00 | 0.00 | 0.00 | 88 | 1014.5 |
| 20260510145836 | 77 | 111 | 7.8 | 11.3 | 0.00 | 0.00 | 0.00 | 88 | 1014.5 |
| 20260510145339 | 76 | 133 | 1.7 | 11.3 | 0.00 | 0.00 | 0.00 | 89 | 1014.6 |
| 20260510144844 | 76 | 98 | 5.2 | 11.3 | 0.00 | 0.00 | 0.00 | 88 | 1014.6 |
| 20260510144325 | 76 | 90 | 4.3 | 10.4 | 0.00 | 0.00 | 0.00 | 89 | 1014.5 |
| 20260510143847 | 75 | 119 | 5.2 | 12.2 | 0.00 | 0.00 | 0.00 | 88 | 1014.4 |
| 20260510143357 | 75 | 96 | 6.1 | 12.2 | 0.00 | 0.00 | 0.00 | 88 | 1014.5 |
| 20260510142822 | 75 | 93 | 6.1 | 13.9 | 0.00 | 0.00 | 0.00 | 88 | 1014.5 |
| 20260510142325 | 75 | 97 | 7.8 | 13.9 | 0.00 | 0.00 | 0.00 | 88 | 1014.5 |
| 20260510141857 | 75 | 115 | 5.2 | 10.4 | 0.00 | 0.00 | 0.00 | 88 | 1014.6 |
| 20260510141321 | 75 | 91 | 6.1 | 11.3 | 0.00 | 0.00 | 0.00 | 88 | 1014.6 |
| 20260510140826 | 74 | 125 | 7.8 | 11.3 | 0.00 | 0.00 | 0.00 | 88 | 1014.5 |
| 20260510140329 | 74 | 107 | 5.2 | 10.4 | 0.00 | 0.00 | 0.00 | 88 | 1014.4 |
| 20260510135830 | 74 | 89 | 5.2 | 11.3 | 0.00 | 0.00 | 0.00 | 88 | 1014.4 |
| 20260510135335 | 74 | 108 | 6.1 | 11.3 | 0.00 | 0.00 | 0.00 | 87 | 1014.5 |
| 20260510134817 | 74 | 93 | 7.0 | 10.4 | 0.00 | 0.00 | 0.00 | 87 | 1014.7 |
| 20260510134349 | 73 | 121 | 4.3 | 11.3 | 0.00 | 0.00 | 0.00 | 87 | 1014.8 |
| 20260510133818 | 73 | 96 | 7.0 | 11.3 | 0.00 | 0.00 | 0.00 | 87 | 1014.8 |
| 20260510133345 | 73 | 68 | 3.5 | 9.6 | 0.00 | 0.00 | 0.00 | 87 | 1014.8 |
| 20260510132830 | 73 | 89 | 4.3 | 8.7 | 0.00 | 0.00 | 0.00 | 87 | 1014.7 |
| 20260510132339 | 73 | 51 | 6.1 | 8.7 | 0.00 | 0.00 | 0.00 | 87 | 1014.7 |
| 20260510131845 | 72 | 103 | 4.3 | 9.6 | 0.00 | 0.00 | 0.00 | 87 | 1014.7 |
| 20260510131330 | 72 | 65 | 3.5 | 7.8 | 0.00 | 0.00 | 0.00 | 87 | 1014.7 |
| 20260510130853 | 72 | 78 | 2.6 | 7.8 | 0.00 | 0.00 | 0.00 | 86 | 1014.6 |
| 20260510130317 | 72 | 75 | 3.5 | 7.0 | 0.00 | 0.00 | 0.00 | 86 | 1014.6 |
| 20260510125822 | 72 | 67 | 4.3 | 8.7 | 0.00 | 0.00 | 0.00 | 86 | 1014.6 |
| 20260510125348 | 72 | 67 | 4.3 | 7.8 | 0.00 | 0.00 | 0.00 | 86 | 1014.5 |
| 20260510124831 | 72 | 77 | 2.6 | 7.8 | 0.00 | 0.00 | 0.00 | 86 | 1014.2 |
| 20260510124356 | 71 | 78 | 3.5 | 7.8 | 0.00 | 0.00 | 0.00 | 86 | 1014.1 |
| 20260510123817 | 71 | 78 | 5.2 | 7.8 | 0.00 | 0.00 | 0.00 | 86 | 1014.2 |
| 20260510123329 | 71 | 55 | 4.3 | 7.8 | 0.00 | 0.00 | 0.00 | 86 | 1014.2 |
| 20260510022830 | 78 | 138 | 2.6 | 4.3 | 0.00 | 0.00 | 0.00 | 75 | 1009.3 |
| 20260510022345 | 78 | 136 | 2.6 | 6.1 | 0.00 | 0.00 | 0.00 | 75 | 1009.2 |
| 20260510021818 | 78 | 136 | 3.5 | 6.1 | 0.00 | 0.00 | 0.00 | 75 | 1009.2 |
| 20260510021329 | 78 | 121 | 3.5 | 6.1 | 0.00 | 0.00 | 0.00 | 75 | 1009.2 |
| 20260510020836 | 78 | 130 | 2.6 | 4.3 | 0.00 | 0.00 | 0.00 | 74 | 1009.1 |
| 20260510020322 | 79 | 128 | 2.6 | 4.3 | 0.00 | 0.00 | 0.00 | 74 | 1009.0 |
| 20260510015828 | 79 | 125 | 1.7 | 5.2 | 0.00 | 0.00 | 0.00 | 74 | 1008.9 |
| 20260510015352 | 79 | 125 | 2.6 | 5.2 | 0.00 | 0.00 | 0.00 | 74 | 1008.8 |
| 20260510014837 | 80 | 122 | 2.6 | 3.5 | 0.00 | 0.00 | 0.00 | 74 | 1008.7 |
| 20260510014351 | 80 | 115 | 2.6 | 3.5 | 0.00 | 0.00 | 0.00 | 74 | 1008.7 |
| 20260510013830 | 80 | 113 | 1.7 | 3.5 | 0.00 | 0.00 | 0.00 | 74 | 1008.6 |
| 20260510013335 | 81 | 113 | 1.7 | 2.6 | 0.00 | 0.00 | 0.00 | 74 | 1008.5 |
| 20260510012820 | 81 | 113 | 1.7 | 3.5 | 0.00 | 0.00 | 0.00 | 74 | 1008.4 |
| 20260510012322 | 81 | 113 | 2.6 | 3.5 | 0.00 | 0.00 | 0.00 | 74 | 1008.4 |
| 20260510011827 | 82 | 115 | 1.7 | 3.5 | 0.00 | 0.00 | 0.00 | 74 | 1008.4 |
| 20260510011333 | 82 | 115 | 1.7 | 3.5 | 0.00 | 0.00 | 0.00 | 74 | 1008.3 |
| 20260510010845 | 82 | 117 | 1.7 | 3.5 | 0.00 | 0.00 | 0.00 | 73 | 1008.3 |
| 20260510010332 | 83 | 117 | 1.7 | 3.5 | 0.00 | 0.00 | 0.00 | 74 | 1008.3 |
| 20260510005839 | 83 | 118 | 1.7 | 3.5 | 0.00 | 0.00 | 0.00 | 74 | 1008.2 |
| 20260510005343 | 83 | 133 | 2.6 | 3.5 | 0.00 | 0.00 | 0.00 | 74 | 1008.1 |
| 20260510004828 | 84 | 140 | 1.7 | 4.3 | 0.00 | 0.00 | 0.00 | 74 | 1008.1 |
| 20260510004353 | 84 | 142 | 2.6 | 4.3 | 0.00 | 0.00 | 0.00 | 74 | 1008.1 |
| 20260510003847 | 84 | 143 | 1.7 | 4.3 | 0.00 | 0.00 | 0.00 | 74 | 1008.0 |
| 20260510003329 | 85 | 150 | 1.7 | 4.3 | 0.00 | 0.00 | 0.00 | 74 | 1008.0 |
| 20260510002831 | 85 | 150 | 1.7 | 5.2 | 0.00 | 0.00 | 0.00 | 74 | 1007.9 |
| 20260510002336 | 85 | 150 | 1.7 | 5.2 | 0.00 | 0.00 | 0.00 | 74 | 1007.9 |
| 20260510001822 | 86 | 149 | 1.7 | 5.2 | 0.00 | 0.00 | 0.00 | 75 | 1007.9 |
| 20260510001323 | 86 | 149 | 1.7 | 4.3 | 0.00 | 0.00 | 0.00 | 75 | 1007.8 |
| 20260510000821 | 86 | 147 | 1.7 | 4.3 | 0.00 | 0.00 | 0.00 | 75 | 1007.8 |
| 20260510000333 | 86 | 146 | 1.7 | 4.3 | 0.00 | 0.00 | 0.00 | 75 | 1007.9 |
| 20260509235839 | 86 | 165 | 2.6 | 6.1 | 0.00 | 0.00 | 0.00 | 76 | 1007.8 |
| 20260509235342 | 87 | 142 | 2.6 | 7.0 | 0.00 | 0.00 | 0.00 | 76 | 1007.8 |
| 20260509234849 | 87 | 99 | 3.5 | 7.0 | 0.00 | 0.00 | 0.00 | 76 | 1007.7 |
| 20260509234333 | 87 | 146 | 2.6 | 7.0 | 0.00 | 0.00 | 0.00 | 76 | 1007.7 |
| 20260509233839 | 87 | 139 | 3.5 | 6.1 | 0.00 | 0.00 | 0.00 | 77 | 1007.8 |
| 20260509233319 | 87 | 115 | 1.7 | 5.2 | 0.00 | 0.00 | 0.00 | 77 | 1007.8 |
| 20260509232853 | 87 | 123 | 1.7 | 3.5 | 0.00 | 0.00 | 0.00 | 77 | 1007.8 |
| 20260509232357 | 87 | 124 | 2.6 | 5.2 | 0.00 | 0.00 | 0.00 | 77 | 1007.7 |
| 20260509231843 | 88 | 124 | 2.6 | 4.3 | 0.00 | 0.00 | 0.00 | 77 | 1007.7 |
| 20260509231325 | 88 | 126 | 0.9 | 3.5 | 0.00 | 0.00 | 0.00 | 78 | 1007.6 |
| 20260509230829 | 88 | 126 | 2.6 | 5.2 | 0.00 | 0.00 | 0.00 | 78 | 1007.6 |
| 20260509230331 | 88 | 126 | 2.6 | 5.2 | 0.00 | 0.00 | 0.00 | 79 | 1007.6 |
| 20260509225906 | 87 | 105 | 0.0 | 1.7 | 0.00 | 0.00 | 0.00 | 79 | 1007.6 |
| 20260509225346 | 87 | 105 | 0.9 | 1.7 | 0.00 | 0.00 | 0.00 | 79 | 1007.5 |
| 20260509224828 | 87 | 105 | 0.9 | 2.6 | 0.00 | 0.00 | 0.00 | 80 | 1007.5 |
| 20260509224354 | 87 | 105 | 0.9 | 2.6 | 0.00 | 0.00 | 0.00 | 80 | 1007.5 |
| 20260509223820 | 87 | 105 | 0.9 | 2.6 | 0.00 | 0.00 | 0.00 | 80 | 1007.5 |
| 20260509223327 | 87 | 105 | 1.7 | 2.6 | 0.00 | 0.00 | 0.00 | 80 | 1007.4 |
| 20260509222833 | 87 | 114 | 1.7 | 3.5 | 0.00 | 0.00 | 0.00 | 81 | 1007.3 |
| 20260509222347 | 87 | 360 | 0.9 | 3.5 | 0.00 | 0.00 | 0.00 | 81 | 1007.4 |
| 20260509221845 | 87 | 303 | 2.6 | 4.3 | 0.00 | 0.00 | 0.00 | 82 | 1007.3 |
| 20260509221327 | 87 | 298 | 2.6 | 3.5 | 0.00 | 0.00 | 0.00 | 82 | 1007.4 |
| 20260509220833 | 87 | 276 | 1.7 | 2.6 | 0.00 | 0.00 | 0.00 | 82 | 1007.5 |
| 20260509220338 | 87 | 5 | 1.7 | 2.6 | 0.00 | 0.00 | 0.00 | 82 | 1007.4 |
| 20260509215829 | 87 | 42 | 0.9 | 2.6 | 0.00 | 0.00 | 0.00 | 83 | 1007.5 |
| 20260509215329 | 86 | 47 | 0.0 | 2.6 | 0.00 | 0.00 | 0.00 | 83 | 1007.5 |
| 20260509214832 | 87 | 48 | 0.9 | 3.5 | 0.00 | 0.00 | 0.00 | 83 | 1007.5 |
| 20260509214336 | 87 | 47 | 0.9 | 7.0 | 0.00 | 0.00 | 0.00 | 83 | 1007.6 |
| 20260509213820 | 86 | 269 | 3.5 | 7.0 | 0.00 | 0.00 | 0.00 | 84 | 1007.7 |
| 20260509213323 | 86 | 323 | 2.6 | 5.2 | 0.00 | 0.00 | 0.00 | 84 | 1007.8 |
| 20260509212826 | 86 | 345 | 1.7 | 7.0 | 0.00 | 0.00 | 0.00 | 84 | 1007.8 |
| 20260509212337 | 86 | 300 | 1.7 | 7.0 | 0.00 | 0.00 | 0.00 | 84 | 1007.9 |
| 20260509211843 | 86 | 274 | 3.5 | 8.7 | 0.00 | 0.00 | 0.00 | 85 | 1007.8 |
| 20260509211327 | 86 | 270 | 2.6 | 8.7 | 0.00 | 0.00 | 0.00 | 85 | 1007.9 |
| 20260509210825 | 85 | 297 | 2.6 | 4.3 | 0.00 | 0.00 | 0.00 | 85 | 1007.9 |
| 20260509210332 | 85 | 272 | 2.6 | 4.3 | 0.00 | 0.00 | 0.00 | 86 | 1008.0 |
| 20260509205905 | 85 | 321 | 1.7 | 3.5 | 0.00 | 0.00 | 0.00 | 85 | 1008.0 |
| 20260509205324 | 85 | 304 | 1.7 | 3.5 | 0.00 | 0.00 | 0.00 | 86 | 1008.1 |
| 20260509204827 | 85 | 289 | 1.7 | 3.5 | 0.00 | 0.00 | 0.00 | 86 | 1008.2 |
| 20260509204330 | 85 | 290 | 1.7 | 4.3 | 0.00 | 0.00 | 0.00 | 86 | 1008.3 |
| 20260509203835 | 85 | 300 | 1.7 | 4.3 | 0.00 | 0.00 | 0.00 | 86 | 1008.5 |
| 20260509203320 | 85 | 242 | 1.7 | 5.2 | 0.00 | 0.00 | 0.00 | 87 | 1008.6 |
| 20260509202826 | 85 | 241 | 2.6 | 5.2 | 0.00 | 0.00 | 0.00 | 87 | 1008.7 |
| 20260509202326 | 85 | 286 | 1.7 | 6.1 | 0.00 | 0.00 | 0.00 | 87 | 1008.8 |
| 20260509201834 | 85 | 283 | 2.6 | 6.1 | 0.00 | 0.00 | 0.00 | 87 | 1008.8 |
| 20260509201320 | 85 | 311 | 1.7 | 6.1 | 0.00 | 0.00 | 0.00 | 87 | 1008.9 |
| 20260509200823 | 85 | 308 | 2.6 | 6.1 | 0.00 | 0.00 | 0.00 | 88 | 1008.9 |
| 20260509200336 | 86 | 284 | 1.7 | 9.6 | 0.00 | 0.00 | 0.00 | 88 | 1008.8 |
| 20260509195843 | 86 | 247 | 2.6 | 9.6 | 0.00 | 0.00 | 0.00 | 88 | 1008.8 |
| 20260509195344 | 86 | 313 | 2.6 | 7.0 | 0.00 | 0.00 | 0.00 | 89 | 1008.9 |
| 20260509194825 | 85 | 242 | 2.6 | 7.0 | 0.00 | 0.00 | 0.00 | 89 | 1008.9 |
| 20260509194331 | 85 | 220 | 2.6 | 8.7 | 0.00 | 0.00 | 0.00 | 89 | 1008.9 |
| 20260509193835 | 85 | 246 | 2.6 | 7.8 | 0.00 | 0.00 | 0.00 | 89 | 1008.9 |
| 20260509193346 | 85 | 324 | 3.5 | 7.8 | 0.00 | 0.00 | 0.00 | 90 | 1008.9 |
| 20260509192820 | 85 | 269 | 3.5 | 7.8 | 0.00 | 0.00 | 0.00 | 90 | 1009.0 |
| 20260509192329 | 84 | 227 | 3.5 | 7.8 | 0.00 | 0.00 | 0.00 | 90 | 1009.1 |